User: anonymous   Login
Location: Avully
(45.9633°N, 6.0228°E)
Time: 14:17:13
(UTC+00:00)
Language:

IRS-1D - Orbit

View from above orbital plane
View from above orbital plane
View from above satellite
View from above satellite

Ground track
Ground track

The orbit data is extracted from the following two-line orbital elements,

1 24971U 97057A   24202.89929221  .00000631  00000-0  23465-3 0  9996
2 24971  98.7644 171.8645 0053699 117.9880 242.6753 14.34799646402739
Epoch (UTC): 20 July 2024 21:34:58
Eccentricity: 0.0053699
inclination: 98.7644°
perigee height: 737 km
apogee height: 814 km
right ascension of ascending node: 171.8645°
argument of perigee: 117.9880°
revolutions per day: 14.34799646
mean anomaly at epoch: 242.6753°
orbit number at epoch: 40273

The dashed part of the orbit path shows where the satellite is in the earth's shadow,  

DLR